TimePDT,TemperatureF,Dew PointF,Humidity,Sea Level PressureIn,VisibilityMPH,Wind Direction,Wind SpeedMPH,Gust SpeedMPH,PrecipitationIn,Events,Conditions,WindDirDegrees,DateUTC
12:52 AM,80.1,43.0,27,29.75,10.0,NNW,15.0,21.9,N/A,,Clear,330,2013-06-16 07:52:00
1:52 AM,77.0,48.0,36,29.76,10.0,WNW,11.5,19.6,N/A,,Clear,300,2013-06-16 08:52:00
2:52 AM,75.0,50.0,41,29.77,10.0,Calm,Calm,-,N/A,,Clear,0,2013-06-16 09:52:00
3:52 AM,75.0,50.0,41,29.78,10.0,NNW,16.1,-,N/A,,Clear,340,2013-06-16 10:52:00
4:52 AM,71.1,50.0,47,29.82,10.0,NW,5.8,-,N/A,,Clear,320,2013-06-16 11:52:00
5:52 AM,61.0,48.9,64,29.81,10.0,Calm,Calm,-,N/A,,Clear,0,2013-06-16 12:52:00
6:52 AM,75.9,48.0,37,29.83,10.0,NNW,6.9,-,N/A,,Clear,330,2013-06-16 13:52:00
7:52 AM,81.0,46.0,29,29.84,10.0,NNW,9.2,-,N/A,,Clear,330,2013-06-16 14:52:00
8:52 AM,87.1,44.1,22,29.85,10.0,NNW,10.4,-,N/A,,Clear,330,2013-06-16 15:52:00
9:52 AM,91.0,39.9,17,29.84,10.0,NNW,8.1,-,N/A,,Clear,340,2013-06-16 16:52:00
10:52 AM,95.0,32.0,11,29.83,10.0,NNW,4.6,-,N/A,,Clear,340,2013-06-16 17:52:00
11:52 AM,100.0,10.0,4,29.82,10.0,WNW,5.8,-,N/A,,Clear,290,2013-06-16 18:52:00
12:52 PM,100.9,10.0,4,29.80,10.0,Variable,3.5,-,N/A,,Clear,0,2013-06-16 19:52:00
1:52 PM,104.0,3.0,4,29.78,10.0,NW,5.8,-,N/A,,Clear,320,2013-06-16 20:52:00
2:52 PM,106.0,3.9,4,29.75,10.0,Variable,3.5,-,N/A,,Clear,0,2013-06-16 21:52:00
3:52 PM,106.0,23.0,5,29.74,10.0,SSE,8.1,-,N/A,,Clear,150,2013-06-16 22:52:00
4:52 PM,105.1,21.9,5,29.72,10.0,SE,6.9,-,N/A,,Clear,140,2013-06-16 23:52:00
5:52 PM,104.0,19.0,5,29.71,10.0,Variable,4.6,-,N/A,,Clear,0,2013-06-17 00:52:00
6:52 PM,100.0,28.0,8,29.72,10.0,SE,5.8,-,N/A,,Clear,140,2013-06-17 01:52:00
7:52 PM,96.1,43.0,16,29.73,10.0,NNW,13.8,-,N/A,,Clear,330,2013-06-17 02:52:00
8:52 PM,91.9,45.0,20,29.74,10.0,NNW,15.0,-,N/A,,Clear,330,2013-06-17 03:52:00
9:52 PM,89.1,48.0,24,29.75,10.0,NNW,15.0,-,N/A,,Clear,340,2013-06-17 04:52:00
10:52 PM,87.1,46.9,25,29.75,10.0,NNW,17.3,-,N/A,,Clear,330,2013-06-17 05:52:00
11:52 PM,84.9,48.0,28,29.77,10.0,NW,13.8,20.7,N/A,,Clear,320,2013-06-17 06:52:00